TimeCST,TemperatureF,Dew PointF,Humidity,Sea Level PressureIn,VisibilityMPH,Wind Direction,Wind SpeedMPH,Gust SpeedMPH,PrecipitationIn,Events,Conditions,WindDirDegrees,DateUTC
12:54 AM,46.0,32.0,58,30.25,10.0,South,4.6,-,N/A,,Clear,170,2012-11-19 06:54:00
1:54 AM,44.1,33.1,65,30.24,10.0,SSE,6.9,-,N/A,,Clear,150,2012-11-19 07:54:00
2:54 AM,46.0,32.0,58,30.23,10.0,South,5.8,-,N/A,,Clear,170,2012-11-19 08:54:00
3:54 AM,46.9,32.0,56,30.23,10.0,South,5.8,-,N/A,,Clear,180,2012-11-19 09:54:00
4:54 AM,48.0,33.1,56,30.23,10.0,South,6.9,-,N/A,,Clear,180,2012-11-19 10:54:00
5:54 AM,48.0,33.1,56,30.22,10.0,South,8.1,-,N/A,,Overcast,180,2012-11-19 11:54:00
6:54 AM,46.9,36.0,66,30.23,10.0,SSW,11.5,-,0.00,Rain,Light Rain,200,2012-11-19 12:54:00
7:54 AM,45.0,39.0,80,30.23,8.0,South,6.9,-,0.01,Rain,Light Rain,190,2012-11-19 13:54:00
8:54 AM,45.0,41.0,86,30.23,7.0,South,4.6,-,0.01,Rain,Light Rain,170,2012-11-19 14:54:00
9:54 AM,46.9,41.0,80,30.23,10.0,South,6.9,-,0.01,Rain,Light Rain,170,2012-11-19 15:54:00
10:54 AM,48.0,41.0,77,30.22,10.0,South,6.9,-,0.00,,Overcast,190,2012-11-19 16:54:00
11:24 AM,48.2,41.0,76,30.21,10.0,South,6.9,-,0.00,,Overcast,190,2012-11-19 17:24:00
11:54 AM,48.0,41.0,77,30.19,10.0,South,6.9,-,0.00,,Overcast,180,2012-11-19 17:54:00
12:54 PM,50.0,43.0,77,30.16,10.0,South,9.2,-,N/A,,Overcast,170,2012-11-19 18:54:00
1:54 PM,51.1,43.0,74,30.13,10.0,South,11.5,-,N/A,,Overcast,170,2012-11-19 19:54:00
2:54 PM,53.1,45.0,74,30.12,10.0,South,10.4,-,N/A,,Scattered Clouds,170,2012-11-19 20:54:00
3:54 PM,52.0,44.1,74,30.12,10.0,South,6.9,-,N/A,,Overcast,190,2012-11-19 21:54:00
4:54 PM,52.0,44.1,74,30.11,10.0,SSE,5.8,-,N/A,,Overcast,160,2012-11-19 22:54:00
5:54 PM,50.0,43.0,77,30.11,10.0,South,4.6,-,N/A,,Partly Cloudy,170,2012-11-19 23:54:00
6:54 PM,46.9,42.1,83,30.12,10.0,Calm,Calm,-,N/A,,Scattered Clouds,0,2012-11-20 00:54:00
7:54 PM,46.9,42.1,83,30.12,10.0,SSE,4.6,-,N/A,,Partly Cloudy,160,2012-11-20 01:54:00
9:54 PM,46.0,41.0,83,30.11,10.0,South,4.6,-,N/A,,Clear,170,2012-11-20 03:54:00
10:54 PM,46.9,43.0,86,30.10,10.0,South,6.9,-,N/A,,Clear,180,2012-11-20 04:54:00
11:54 PM,45.0,42.1,90,30.09,10.0,South,6.9,-,N/A,,Clear,190,2012-11-20 05:54:00